EUTELSAT 70B

Last updated on Sun Apr 12 2026 00:02:53 GMT+0000 (Coordinated Universal Time)

1 39020U 12069A 26101.46339507 -.00000042 00000+0 00000+0 0 9994 2 39020 0.0668 11.0850 0001836 20.9217 45.0215 1.00272977 48846
UTC large
Height (km)
Speed (km/s)
/
Latitude / Longitude
Inclination (degrees)
Orbital Period (minutes)
Azimuth
Elevation
Range (km)
Doppler Factor

Next 0 passes for location: London (51.5072 / 0.1276)

Sorry there are no passes over London.
EUTELSAT 70B